Regional Weather Roundup
Issued by NWS Goodland, KS

Home | Current Version | Previous Version | Graphics & Text | Print | Product List | Glossary On
Versions: 1 2 3 4 5 6 7 8 9 10 11 12 13 14 15 16 17 18 19 20 21 22 23 24 25 26 27 28 29 30 31 32 33 34 35 36 37 38 39 40 41 42 43 44 45 46 47 48 49 50
000
ASUS43 KGLD 081608
RWRGLD

GOODLAND FORECAST AREA HOURLY WEATHER ROUNDUP
NATIONAL WEATHER SERVICE GOODLAND KS
900 AM MST THU DEC 08 2016

...OFFICIAL OBSERVATIONS...

CITY           SKY/WX    TMP DP  RH WIND       PRES   REMARKS
GOODLAND KS    SUNNY      7  -3  64 N13       30.57R WCI  -9
HILL CITY KS   SUNNY     11   1  64 NW14      30.70R WCI  -5
IMPERIAL NEB   SUNNY      3  -6  66 NW8       30.60R
MCCOOK NEB     SUNNY      3  -5  69 W10       30.66R WCI -12
AKRON CO       CLOUDY     1  -4  79 W7        30.48R
BURLINGTON CO  SUNNY      9  -3  58 N7        30.53R
LIMON CO       CLOUDY     5   3  91 CALM      30.44R
$$

...UNOFFICIAL OBSERVATIONS...

CITY           SKY/WX    TMP DP  RH WIND       PRES   REMARKS
COLBY KS       SUNNY      9   1  72 NW12      30.64R WCI  -6
LENORA KS        N/A      8  32 100 MISG        N/A
NORTON KS      SUNNY      9  -2  61 W13G20    30.66  WCI  -7
SHARON SPRINGS   N/A      8   1  72 N10         N/A  WCI  -6
TRENTON NEB      N/A      3  32 100 NW9         N/A
KIT CARSON CO    N/A     10   0  63 CALM        N/A
YUMA CO        FAIR       1  -6  71 W6        30.54R
$$




USA.gov is the U.S. government's official web portal to all federal, state and local government web resources and services.